星链-4511 (STARLINK-4511 )

导读

STARLINK-4511是美国SpaceX星链星座的卫星,于2022年8月19日发射升空,属于星链低轨互联网卫星项目的组网卫星,运行在近地轨道。星链项目旨在构建全球卫星互联网星座,该卫星承担提供全球宽带网络服务的组网任务,服务地面通信覆盖补网。

基本信息
目录编号:
53527
目录名称:
STARLINK-4511
国际标识:
2022-101A
轨道中心:
EARTH
卫星名称:
星链-4511
卫星全名:
星链-4511 (STARLINK-4511 )
卫星状态:
已陨落 最后检测时间 2025-12-13
发射日期:
2022-08-19 UTC
国别 :
美国 (US)
星等 :
--
轨道信息
数据来源 国际轨道数据
星历时间: 2025-12-12T21:54:46+0800
轨道信息已过期186天
半长轴: 6557.908km
偏心率: 0.0004453
轨道倾角: 53.177°
近地点辐角 345.039°
升交点赤经 23.120°
平近点角 15.052°
近地点: 176.852km
远地点: 182.694km
周期: 88.086分钟
每日圈数: 16.34763
详细信息
固有亮度:
5
最大亮度:
2.5
卫星平台:
Starlink v1.5
覆盖范围:
全球
运营商:
太空探索技术公司
运营商所在国:
美国
制造商(研发单位):
太空探索技术公司
制造商所在国:
美国
使用方式:
暂无
卫星简介
星链(Starlink)计划是由太空探索技术公司(SpaceX)提出的一个巨型低轨卫星互联网星座项目,计划在2019年至2024年间在太空搭建由约1.2万颗卫星组成的“星链”网络,其中1584颗将部署在地球上空550千米处的近地轨道,并从2020年开始工作。该卫星仍在工作。